Location: Saluda
(35.2377°N, 82.3468°W)
Time: 03:53:53
(UTC+00:00)

Vanguard 2 - Pass Details

Date: 06 October 2022
Orbit: 553 x 2933 km, 32.9° (Epoch: 04 December)

Event Time Altitude Azimuth Distance (km) Brightness Sun altitude
Rises 21:57:22 0° 281° (W) 5,612 13.1 13.0°
Reaches altitude 10° 22:00:40 10° 278° (W) 4,867 13.1 12.3°
Maximum altitude 22:15:26 63° 203° (SSW) 3,073 11.0 9.4°
Drops below altitude 10° 22:32:54 10° 127° (SE) 5,635 11.6 5.9°
Sets 22:37:05 0° 124° (SE) 6,506 11.8 5.1°
